Regional Weather Roundup
Issued by NWS Charleston, SC

Current Version | Previous Version | Text Only | Print | Product List | Glossary Off
Versions: 1 2 3 4 5 6 7 8 9 10 11 12 13 14 15 16 17 18 19 20 21 22 23 24 25 26 27 28 29 30 31 32 33 34 35 36 37 38 39 40 41 42 43 44 45 46 47 48 49 50

000
ASUS42 KCHS 221427
RWRCHS

REGIONAL WEATHER ROUNDUP
NATIONAL WEATHER SERVICE CHARLESTON SC
1000 AM EDT THU JUN 22 2017

NOTE: "FAIR" INDICATES FEW OR NO CLOUDS BELOW 12,000 FEET WITH NO
SIGNIFICANT WEATHER AND/OR OBSTRUCTIONS TO VISIBILITY.

NOT ALL STATIONS ARE QUALITY CONTROLLED. USE DATA WITH CAUTION...
ESPECIALLY DEWPOINT OBSERVATIONS.

SCZ027-030-031-034>040-042>050-221500-
...SOUTHEAST SOUTH CAROLINA...

CITY           SKY/WX    TMP DP  RH WIND       PRES   REMARKS
N CHARLESTON   PTSUNNY   85  76  74 SW9       30.11S HX  94
WATERFRONT PRK   N/A     82  78  88 S8        30.10R HX  91
JOHNS ISLAND   PTSUNNY   84  79  84 S9        30.11F HX  96
PINOPOLIS        N/A     81  79  94 CALM      30.05R
MONCKS CORNER  PTSUNNY   81  77  89 S6        30.11F
SUMMERVILLE    FAIR      82  77  83 S6        30.12S HX  91
BEAUFORT MCAS  CLOUDY    86  79  79 S5        30.11R HX  99
BEAUFORT ARPT  FAIR      82  77  83 S9        30.10F HAZE    HX  91
HILTON HEAD IS MOSUNNY   82  77  83 S14         N/A  HX  91
WALTERBORO     CLOUDY    82  77  83 SW3       30.12S HX  91
ALLENDALE      PTSUNNY   81  77  89 CALM      30.11S

...SOUTHERN MIDLANDS AND PEE DEE...

CITY           SKY/WX    TMP DP  RH WIND       PRES   REMARKS
GEORGETOWN     FAIR      82  77  83 SW10      30.12S HX  91
KINGSTREE      CLOUDY    81  77  89 CALM      30.12S
ORANGEBURG     CLOUDY    81  77  88 SW3       30.12S
BARNWELL       DRIZZLE   81  79  94 CALM      30.12S
AIKEN          CLOUDY    77  73  88 CALM      30.17R
MANNING        PTSUNNY   81  79  94 SW22      30.12S
COLUMBIA       CLOUDY    80  75  84 CALM      30.12S
SUMTER         CLOUDY    81  75  83 SW7       30.11R
FLORENCE       CLOUDY    78  76  93 SW5       30.12S
MYRTLE BEACH   CLOUDY    82  77  83 SW6       30.13R HX  91
N MYRTLE BEACH CLOUDY    81  77  88 SW3       30.11S

$$

GAZ063-065-086>088-099>101-113>116-118-119-134>141-150-221500-
...SOUTHEAST GEORGIA...

CITY           SKY/WX    TMP DP  RH WIND       PRES   REMARKS
SAVANNAH ARPT  CLOUDY    85  74  69 SW8       30.11R HX  92
HUNTER AAF     PTSUNNY   85  76  72 S6        30.08R HX  95
FORT STEWART   PTSUNNY   81  75  82 S5        30.08S
STATESBORO     CLOUDY    82  82 100 SW5       30.11S HX  94
SYLVANIA       CLOUDY    81  79  92 CALM      30.12S HX  90
CLAXTON        FAIR     N/A N/A N/A CALM      30.11R

...CSRA...CENTRAL AND FAR SOUTHEAST GEORGIA...

CITY           SKY/WX    TMP DP  RH WIND       PRES   REMARKS
THOMSON        CLOUDY    78  74  87 CALM      30.18F
AUGUSTA-BUSH   CLOUDY    79  77  94 CALM      30.12R FOG
AUGUSTA-DANIEL CLOUDY    79  74  84 CALM      30.13S HAZE
SWAINSBORO     FAIR      79  77  94 CALM      30.13R
VIDALIA        MOSUNNY   82  75  78 SW6       30.12R
EASTMAN        FAIR      82  67  60 CALM      30.13S
HAZLEHURST     FAIR      82  76  83 S5        30.10S HX  90
ALMA           CLOUDY    80  74  81 S3        30.11R
WAYCROSS       CLOUDY    85  80  86 SW6       30.10S HX  99
JESUP          FAIR      84  72  65 SW6       30.11R
BAXLEY         FAIR      81  81 100 S3        30.11R HX  91
BRUNSWICK      MOSUNNY   88  77  70 S9        30.11R HX 100
SAINT SIMONS   SUNNY     85  77  77 S9        30.10R HX  95

$$

SCZ027-028-034-036>038-045-046-048>050-GAZ119-141-221500-
...LAKE AND SUPPLEMENTAL COASTAL OBSERVATIONS...

STATION/POSITION TIME  TEMP    WIND        PRES    WAVE   SWELL
                       AIR SEA DIR/SP/G            HT/PER HT/PER/DIR
                 (UTC) (F)     (DEG/KT/KT) (MB)    (FT/S) (FT/S/D)
WINYAH BAY       1330   81     220/  6     1019.0S
LAKE MURRAY      1420   78      CALM  /  2 1019.3
ACE BASIN NERRS  1345   84     160/  1     1020.0R
FORT PULASKI     1400   83 83  210/  7/ 12 1019.7
SAPELO ISLAND    1400   85     190/  8     1019.0

$$

ANZ835-935-AMZ111-154-330-350-352-354-370-450-454-472-221500-
...C-MAN AND BUOY OBSERVATIONS...

STATION/POSITION TIME  TEMP    WIND        PRES    WAVE   SWELL
                       AIR SEA DIR/SP/G            HT/PER HT/PER/DIR
                 (UTC) (F)     (DEG/KT/KT) (MB)    (FT/S) (FT/S/D)
BUOY 41004       1410   81 81  200/  6/  8 1020.0
BUOY 41008       1350   81 81  180/ 14/ 16 1018.8R   3/ 7   2/110/ 7
FOLLY BEACH CMAN 1400   82     200/  8/ 10 1020.5R
CAPERS NEARSHORE 1408   85 82  210/  8/ 12 1019.7S
FRIPP NEARSHORE  1408   82 82  200/ 10/ 12 1019.4R


STATION/POSITION TIME  TEMP    WIND        PRES    WAVE   SWELL
                       AIR SEA DIR/SP/G            HT/PER HT/PER/DIR
                 (UTC) (F)     (DEG/KT/KT) (MB)    (FT/S) (FT/S/D)
5E ST. MARYS GA  1400      80                N/A     3/ 8
FRYING PAN BUOY  1410   80 81  260/  6/  8 1019.9
BUOY 41025       1350   78 79  260/  8/  8 1019.1F   2/ 6   2/180/ 6
CAPE LOOKOUT NC  1400   81     270/  7/  9 1019.0F
BUOY 41002       1350   81 82  210/ 10/ 12 1021.3S   4/ 8   3/130/ 8
BUOY 41010       1410   82 82  150/ 10/ 14 1020.1
ST AUGUSTINE FL  1400   77 77  140/ 10/ 11 1020.1R


$$




USA.gov is the U.S. government's official web portal to all federal, state and local government web resources and services.